Station KP59 - Copper Harbor, MI Image indicating link to RSS feed of recent meteorological observations for station KP59


Conditions at KP59 as of
(1:51 am EDT)
0551 GMT on 06/14/2024:
     

Click on the graph icon in the table below to see a time series plot of the last five days of that observation.

5-day plot - Wind Direction Wind Direction (WDIR):WSW ( 250 deg true )
5-day plot - Wind Speed Wind Speed (WSPD): 5.1 kts
5-day plot - Atmospheric Pressure Atmospheric Pressure (PRES):29.88 in
5-day plot - Air Temperature Air Temperature (ATMP): 54.0 °F
5-day plot - Dew Point Dew Point (DEWP): 48.9 °F
5-day plot -  Wind Speed, Wind Gust and Atmospheric Pressure Combined plot of Wind Speed, Gust, and Air Pressure
Previous observations
TIME
(EDT)
5-day plot - Wind Direction
WDIR
 
5-day plot - Wind Speed
WSPD
kts
5-day plot - Wind Gust
GST
kts
5-day plot - Wave Height
WVHT
ft
5-day plot - Dominant Wave Period
DPD
sec
5-day plot - Average Wave Period
APD
sec
5-day plot - Mean Wave Direction
MWD
 
5-day plot - Atmospheric Pressure
PRES
in
5-day plot - Pressure Tendency
PTDY
in
5-day plot - Air Temperature
ATMP
°F
5-day plot - Water Temperature
WTMP
°F
5-day plot - Dew Point
DEWP
°F
5-day plot - Salinity
SAL
psu
5-day plot - Visibility
VIS
nmi
5-day plot - Tide (above MLLW)
TIDE
ft
2024-06-14 12:51 am- 0.0-----29.86- 55.0- 50.0---
2024-06-13 11:51 pmNNW 5.1-----29.86- 55.9- 50.0---
2024-06-13 10:51 pmNNW 5.1-----29.85- 57.0- 50.0---
2024-06-13 09:51 pmNNW 8.9 15.9----29.82- 60.1- 50.0---
2024-06-13 08:51 pmNNW 8.9 15.0----29.79- 61.0- 51.1---
2024-06-13 07:51 pm N 8.9-----29.77- 61.0- 52.0---
2024-06-13 06:51 pmNNW 6.0-----29.75- 63.0- 54.0---
2024-06-13 05:51 pm- 2.9-----29.74- 64.0- 57.9---
2024-06-13 04:51 pm- 0.0-----29.76- 54.0- 52.0---
2024-06-13 03:51 pm- 6.0-----29.70- 61.0- 52.0---
2024-06-13 02:51 pm N 8.9-----29.69- 59.0- 53.1---
2024-06-13 01:51 pm N 7.0-----29.65- 57.9- 54.0---
2024-06-13 12:51 pmNNW 8.0-----29.66- 57.0- 52.0---
2024-06-13 11:51 am N 6.0-----29.66- 51.1- 50.0---
2024-06-13 10:51 am N 7.0-----29.64- 53.1- 52.0---
2024-06-13 09:51 am N 7.0-----29.61- 55.9- 53.1---
2024-06-13 08:51 am- 4.1-----29.57- 62.1- 57.0---
2024-06-13 07:51 am- 4.1 15.9----29.58- 64.9- 59.0---
2024-06-13 06:51 am- 4.1-----29.57- 64.0- 59.0---
2024-06-13 05:51 amWSW 5.1-----29.57- 61.0- 57.9---
2024-06-13 04:51 amWSW 5.1-----29.57- 62.1- 57.9---
2024-06-13 03:51 am- 0.0-----29.58- 61.0- 57.9---
2024-06-13 02:51 am- 0.0-----29.59- 61.0- 57.0---
2024-06-13 01:51 amWSW 5.1-----29.60- 60.1- 55.0---